Location: C�an Torras
(41.5052°N, 1.9280°E)
Time: 21:27:21
(UTC+00:00)

YAOGAN 1 - Pass Details

Date: 20 January 2021
Orbit: 618 x 620 km, 97.9° (Epoch: 02 March)

Event Time Altitude Azimuth Distance (km) Brightness Sun altitude
Rises 18:27:21 0° 162° (SSE) 2,882 5.9 -17.4°
Reaches altitude 10° 18:29:31 10° 160° (SSE) 1,981 5.1 -17.8°
Maximum altitude 18:33:49 76° 76° (ENE) 645 2.4 -18.6°
Drops below altitude 10° 18:38:09 10° 351° (N) 1,997 5.2 -19.4°
Sets 18:40:21 0° 350° (N) 2,907 6.0 -19.8°
